owner,sensor,date,latitude,longitude,vertical_datum,sea_water_practical_salinity,qcFlag 
SCCF RECON,ioos:station:SCCF:16:1,2010-08-01T00:00:00Z,26.4345,-81.9647,2.411,34.44,1111122 
SCCF RECON,ioos:station:SCCF:16:1,2010-08-01T01:00:00Z,26.4345,-81.9647,2.343,34.5,1111122 
SCCF RECON,ioos:station:SCCF:16:1,2010-08-01T02:00:00Z,26.4345,-81.9647,2.284,34.44,1111122 
SCCF RECON,ioos:station:SCCF:16:1,2010-08-01T03:00:00Z,26.4345,-81.9647,2.285,33.02,1111122 
SCCF RECON,ioos:station:SCCF:16:1,2010-08-01T04:00:00Z,26.4345,-81.9647,2.341,31.84,1111122 
SCCF RECON,ioos:station:SCCF:16:1,2010-08-01T05:00:00Z,26.4345,-81.9647,2.464,33.68,1111122 
SCCF RECON,ioos:station:SCCF:16:1,2010-08-01T06:00:00Z,26.4345,-81.9647,2.625,34.05,1111122 
SCCF RECON,ioos:station:SCCF:16:1,2010-08-01T07:00:00Z,26.4345,-81.9647,2.702,34.03,1111122 
SCCF RECON,ioos:station:SCCF:16:1,2010-08-01T08:00:00Z,26.4345,-81.9647,2.75,34.34,1111122 
SCCF RECON,ioos:station:SCCF:16:1,2010-08-01T09:00:00Z,26.4345,-81.9647,2.754,34.43,1111122 
SCCF RECON,ioos:station:SCCF:16:1,2010-08-01T10:00:00Z,26.4345,-81.9647,2.686,34.44,1111122 
SCCF RECON,ioos:station:SCCF:16:1,2010-08-01T11:00:00Z,26.4345,-81.9647,2.585,34.4,1111122 
SCCF RECON,ioos:station:SCCF:16:1,2010-08-01T12:00:00Z,26.4345,-81.9647,2.448,34.41,1111122 
SCCF RECON,ioos:station:SCCF:16:1,2010-08-01T13:00:00Z,26.4345,-81.9647,2.378,34.32,1111122 
SCCF RECON,ioos:station:SCCF:16:1,2010-08-01T14:00:00Z,26.4345,-81.9647,2.311,34.18,1111122 
SCCF RECON,ioos:station:SCCF:16:1,2010-08-01T15:00:00Z,26.4345,-81.9647,2.253,33.66,1111122 
SCCF RECON,ioos:station:SCCF:16:1,2010-08-01T16:00:00Z,26.4345,-81.9647,2.225,32.87,1111122 
SCCF RECON,ioos:station:SCCF:16:1,2010-08-01T17:00:00Z,26.4345,-81.9647,2.283,32.0,1111122 
SCCF RECON,ioos:station:SCCF:16:1,2010-08-01T18:00:00Z,26.4345,-81.9647,2.398,33.06,1111122 
SCCF RECON,ioos:station:SCCF:16:1,2010-08-01T19:00:00Z,26.4345,-81.9647,2.527,33.85,1111122 
SCCF RECON,ioos:station:SCCF:16:1,2010-08-01T20:00:00Z,26.4345,-81.9647,2.605,34.09,1111122 
SCCF RECON,ioos:station:SCCF:16:1,2010-08-01T21:00:00Z,26.4345,-81.9647,2.619,33.61,1111122 
SCCF RECON,ioos:station:SCCF:16:1,2010-08-01T22:00:00Z,26.4345,-81.9647,2.606,33.65,1111122 
SCCF RECON,ioos:station:SCCF:16:1,2010-08-01T23:00:00Z,26.4345,-81.9647,2.568,33.72,1111122 
SCCF RECON,ioos:station:SCCF:16:1,2010-08-02T00:00:00Z,26.4345,-81.9647,2.535,33.75,1111122 
SCCF RECON,ioos:station:SCCF:16:1,2010-08-02T01:00:00Z,26.4345,-81.9647,2.475,33.84,1111122 
SCCF RECON,ioos:station:SCCF:16:1,2010-08-02T02:00:00Z,26.4345,-81.9647,2.427,34.1,1111122 
SCCF RECON,ioos:station:SCCF:16:1,2010-08-02T03:00:00Z,26.4345,-81.9647,2.356,34.07,1111122 
SCCF RECON,ioos:station:SCCF:16:1,2010-08-02T04:00:00Z,26.4345,-81.9647,2.361,33.25,1111122 
SCCF RECON,ioos:station:SCCF:16:1,2010-08-02T05:00:00Z,26.4345,-81.9647,2.492,33.34,1111122 
SCCF RECON,ioos:station:SCCF:16:1,2010-08-02T06:00:00Z,26.4345,-81.9647,2.592,33.14,1111122 
SCCF RECON,ioos:station:SCCF:16:1,2010-08-02T07:00:00Z,26.4345,-81.9647,2.702,33.05,1111122 
SCCF RECON,ioos:station:SCCF:16:1,2010-08-02T08:00:00Z,26.4345,-81.9647,2.756,33.13,1111122 
SCCF RECON,ioos:station:SCCF:16:1,2010-08-02T09:00:00Z,26.4345,-81.9647,2.805,32.56,1111122 
SCCF RECON,ioos:station:SCCF:16:1,2010-08-02T10:00:00Z,26.4345,-81.9647,2.906,33.01,1111122 
SCCF RECON,ioos:station:SCCF:16:1,2010-08-02T11:00:00Z,26.4345,-81.9647,2.806,33.09,1111122 
SCCF RECON,ioos:station:SCCF:16:1,2010-08-02T12:00:00Z,26.4345,-81.9647,2.628,33.75,1111122 
SCCF RECON,ioos:station:SCCF:16:1,2010-08-02T13:00:00Z,26.4345,-81.9647,2.477,33.34,1111122 
SCCF RECON,ioos:station:SCCF:16:1,2010-08-02T14:00:00Z,26.4345,-81.9647,2.379,32.97,1111122 
SCCF RECON,ioos:station:SCCF:16:1,2010-08-02T15:00:00Z,26.4345,-81.9647,2.289,32.82,1111122 
SCCF RECON,ioos:station:SCCF:16:1,2010-08-02T16:00:00Z,26.4345,-81.9647,2.271,32.8,1111122 
SCCF RECON,ioos:station:SCCF:16:1,2010-08-02T17:00:00Z,26.4345,-81.9647,2.245,32.42,1111122 
SCCF RECON,ioos:station:SCCF:16:1,2010-08-02T18:00:00Z,26.4345,-81.9647,2.307,32.22,1111122 
SCCF RECON,ioos:station:SCCF:16:1,2010-08-02T19:00:00Z,26.4345,-81.9647,2.38,32.3,1111122 
SCCF RECON,ioos:station:SCCF:16:1,2010-08-02T20:00:00Z,26.4345,-81.9647,2.485,32.56,1111122 
SCCF RECON,ioos:station:SCCF:16:1,2010-08-02T21:00:00Z,26.4345,-81.9647,2.538,32.77,1111122 
SCCF RECON,ioos:station:SCCF:16:1,2010-08-02T22:00:00Z,26.4345,-81.9647,2.584,32.45,1111122 
SCCF RECON,ioos:station:SCCF:16:1,2010-08-02T23:00:00Z,26.4345,-81.9647,2.591,32.37,1111122 
SCCF RECON,ioos:station:SCCF:16:1,2010-08-03T00:00:00Z,26.4345,-81.9647,2.54,32.69,1111122 
SCCF RECON,ioos:station:SCCF:16:1,2010-08-03T01:00:00Z,26.4345,-81.9647,2.529,32.81,1111122 
SCCF RECON,ioos:station:SCCF:16:1,2010-08-03T02:00:00Z,26.4345,-81.9647,2.507,32.86,1111122 
SCCF RECON,ioos:station:SCCF:16:1,2010-08-03T03:00:00Z,26.4345,-81.9647,2.504,32.92,1111122 
SCCF RECON,ioos:station:SCCF:16:1,2010-08-03T04:00:00Z,26.4345,-81.9647,2.476,32.88,1111122 
SCCF RECON,ioos:station:SCCF:16:1,2010-08-03T05:00:00Z,26.4345,-81.9647,2.46,32.86,1111122 
SCCF RECON,ioos:station:SCCF:16:1,2010-08-03T06:00:00Z,26.4345,-81.9647,2.508,33.04,1111122 
SCCF RECON,ioos:station:SCCF:16:1,2010-08-03T07:00:00Z,26.4345,-81.9647,2.63,32.52,1111122 
SCCF RECON,ioos:station:SCCF:16:1,2010-08-03T08:00:00Z,26.4345,-81.9647,2.733,32.16,1111122 
SCCF RECON,ioos:station:SCCF:16:1,2010-08-03T09:00:00Z,26.4345,-81.9647,2.807,32.15,1111122 
SCCF RECON,ioos:station:SCCF:16:1,2010-08-03T10:00:00Z,26.4345,-81.9647,2.829,32.28,1111122 
SCCF RECON,ioos:station:SCCF:16:1,2010-08-03T11:00:00Z,26.4345,-81.9647,2.792,32.38,1111122 
SCCF RECON,ioos:station:SCCF:16:1,2010-08-03T12:00:00Z,26.4345,-81.9647,2.704,32.43,1111122 
SCCF RECON,ioos:station:SCCF:16:1,2010-08-03T13:00:00Z,26.4345,-81.9647,2.601,32.62,1111122 
SCCF RECON,ioos:station:SCCF:16:1,2010-08-03T14:00:00Z,26.4345,-81.9647,2.49,32.6,1111122 
SCCF RECON,ioos:station:SCCF:16:1,2010-08-03T15:00:00Z,26.4345,-81.9647,2.369,32.32,1111122 
SCCF RECON,ioos:station:SCCF:16:1,2010-08-03T16:00:00Z,26.4345,-81.9647,2.255,32.48,1111122 
SCCF RECON,ioos:station:SCCF:16:1,2010-08-03T17:00:00Z,26.4345,-81.9647,2.22,32.33,1111122 
SCCF RECON,ioos:station:SCCF:16:1,2010-08-03T18:00:00Z,26.4345,-81.9647,2.229,32.0,1111122 
SCCF RECON,ioos:station:SCCF:16:1,2010-08-03T19:00:00Z,26.4345,-81.9647,2.276,31.52,1111122 
SCCF RECON,ioos:station:SCCF:16:1,2010-08-03T20:00:00Z,26.4345,-81.9647,2.36,31.68,1111122 
SCCF RECON,ioos:station:SCCF:16:1,2010-08-03T21:00:00Z,26.4345,-81.9647,2.428,32.27,1111122 
SCCF RECON,ioos:station:SCCF:16:1,2010-08-03T22:00:00Z,26.4345,-81.9647,2.501,32.16,1111122 
SCCF RECON,ioos:station:SCCF:16:1,2010-08-03T23:00:00Z,26.4345,-81.9647,2.573,32.15,1111122 
SCCF RECON,ioos:station:SCCF:16:1,2010-08-04T00:00:00Z,26.4345,-81.9647,2.594,32.2,1111122 
SCCF RECON,ioos:station:SCCF:16:1,2010-08-04T01:00:00Z,26.4345,-81.9647,2.598,32.59,1111122 
SCCF RECON,ioos:station:SCCF:16:1,2010-08-04T02:00:00Z,26.4345,-81.9647,2.588,33.08,1111122 
SCCF RECON,ioos:station:SCCF:16:1,2010-08-04T03:00:00Z,26.4345,-81.9647,2.521,32.8,1111122 
SCCF RECON,ioos:station:SCCF:16:1,2010-08-04T04:00:00Z,26.4345,-81.9647,2.519,32.64,1111122 
SCCF RECON,ioos:station:SCCF:16:1,2010-08-04T05:00:00Z,26.4345,-81.9647,2.555,32.46,1111122 
SCCF RECON,ioos:station:SCCF:16:1,2010-08-04T06:00:00Z,26.4345,-81.9647,2.574,32.56,1111122 
SCCF RECON,ioos:station:SCCF:16:1,2010-08-04T07:00:00Z,26.4345,-81.9647,2.652,32.34,1111122 
SCCF RECON,ioos:station:SCCF:16:1,2010-08-04T08:00:00Z,26.4345,-81.9647,2.689,32.3,1111122 
SCCF RECON,ioos:station:SCCF:16:1,2010-08-04T09:00:00Z,26.4345,-81.9647,2.74,32.59,1111122 
SCCF RECON,ioos:station:SCCF:16:1,2010-08-04T10:00:00Z,26.4345,-81.9647,2.81,32.39,1111122 
SCCF RECON,ioos:station:SCCF:16:1,2010-08-04T11:00:00Z,26.4345,-81.9647,2.8,32.46,1111122 
SCCF RECON,ioos:station:SCCF:16:1,2010-08-04T12:00:00Z,26.4345,-81.9647,2.807,32.52,1111122 
SCCF RECON,ioos:station:SCCF:16:1,2010-08-04T13:00:00Z,26.4345,-81.9647,2.769,32.66,1111122 
SCCF RECON,ioos:station:SCCF:16:1,2010-08-04T14:00:00Z,26.4345,-81.9647,2.671,32.75,1111122 
SCCF RECON,ioos:station:SCCF:16:1,2010-08-04T15:00:00Z,26.4345,-81.9647,2.524,32.78,1111122 
SCCF RECON,ioos:station:SCCF:16:1,2010-08-04T16:00:00Z,26.4345,-81.9647,2.41,32.54,1111122 
SCCF RECON,ioos:station:SCCF:16:1,2010-08-04T17:00:00Z,26.4345,-81.9647,2.25,32.67,1111122 
SCCF RECON,ioos:station:SCCF:16:1,2010-08-04T18:00:00Z,26.4345,-81.9647,2.171,31.92,1111122 
SCCF RECON,ioos:station:SCCF:16:1,2010-08-04T19:00:00Z,26.4345,-81.9647,2.133,31.91,1111122 
SCCF RECON,ioos:station:SCCF:16:1,2010-08-04T20:00:00Z,26.4345,-81.9647,2.219,30.97,1111122 
SCCF RECON,ioos:station:SCCF:16:1,2010-08-04T21:00:00Z,26.4345,-81.9647,2.302,30.32,1111122 
SCCF RECON,ioos:station:SCCF:16:1,2010-08-04T22:00:00Z,26.4345,-81.9647,2.388,31.13,1111122 
SCCF RECON,ioos:station:SCCF:16:1,2010-08-04T23:00:00Z,26.4345,-81.9647,2.484,32.42,1111122 
SCCF RECON,ioos:station:SCCF:16:1,2010-08-05T00:00:00Z,26.4345,-81.9647,2.572,32.5,1111122 
SCCF RECON,ioos:station:SCCF:16:1,2010-08-05T01:00:00Z,26.4345,-81.9647,2.633,32.64,1111122 
SCCF RECON,ioos:station:SCCF:16:1,2010-08-05T02:00:00Z,26.4345,-81.9647,2.651,33.17,1111122 
SCCF RECON,ioos:station:SCCF:16:1,2010-08-05T03:00:00Z,26.4345,-81.9647,2.665,33.03,1111122 
SCCF RECON,ioos:station:SCCF:16:1,2010-08-05T04:00:00Z,26.4345,-81.9647,2.629,32.52,1111122 
SCCF RECON,ioos:station:SCCF:16:1,2010-08-05T05:00:00Z,26.4345,-81.9647,2.628,32.48,1111122 
SCCF RECON,ioos:station:SCCF:16:1,2010-08-05T06:00:00Z,26.4345,-81.9647,2.618,32.49,1111122 
SCCF RECON,ioos:station:SCCF:16:1,2010-08-05T07:00:00Z,26.4345,-81.9647,2.56,32.57,1111122 
SCCF RECON,ioos:station:SCCF:16:1,2010-08-05T08:00:00Z,26.4345,-81.9647,2.658,32.59,1111122 
SCCF RECON,ioos:station:SCCF:16:1,2010-08-05T09:00:00Z,26.4345,-81.9647,2.799,32.75,1111122 
SCCF RECON,ioos:station:SCCF:16:1,2010-08-05T10:00:00Z,26.4345,-81.9647,2.828,33.13,1111122 
SCCF RECON,ioos:station:SCCF:16:1,2010-08-05T11:00:00Z,26.4345,-81.9647,2.851,33.45,1111122 
SCCF RECON,ioos:station:SCCF:16:1,2010-08-05T12:00:00Z,26.4345,-81.9647,2.92,33.66,1111122 
SCCF RECON,ioos:station:SCCF:16:1,2010-08-05T13:00:00Z,26.4345,-81.9647,2.913,33.79,1111122 
SCCF RECON,ioos:station:SCCF:16:1,2010-08-05T14:00:00Z,26.4345,-81.9647,2.829,33.82,1111122 
SCCF RECON,ioos:station:SCCF:16:1,2010-08-05T15:00:00Z,26.4345,-81.9647,2.711,33.59,1111122 
SCCF RECON,ioos:station:SCCF:16:1,2010-08-05T16:00:00Z,26.4345,-81.9647,2.547,33.39,1111122 
SCCF RECON,ioos:station:SCCF:16:1,2010-08-05T17:00:00Z,26.4345,-81.9647,2.428,33.23,1111122 
SCCF RECON,ioos:station:SCCF:16:1,2010-08-05T18:00:00Z,26.4345,-81.9647,2.274,32.68,1111122 
SCCF RECON,ioos:station:SCCF:16:1,2010-08-05T19:00:00Z,26.4345,-81.9647,2.111,32.54,1111122 
SCCF RECON,ioos:station:SCCF:16:1,2010-08-05T20:00:00Z,26.4345,-81.9647,2.069,32.32,1111122 
SCCF RECON,ioos:station:SCCF:16:1,2010-08-05T21:00:00Z,26.4345,-81.9647,2.173,31.56,1111122 
SCCF RECON,ioos:station:SCCF:16:1,2010-08-05T22:00:00Z,26.4345,-81.9647,2.285,31.34,1111122 
SCCF RECON,ioos:station:SCCF:16:1,2010-08-05T23:00:00Z,26.4345,-81.9647,2.379,32.17,1111122 
SCCF RECON,ioos:station:SCCF:16:1,2010-08-06T00:00:00Z,26.4345,-81.9647,2.547,33.04,1111122 
SCCF RECON,ioos:station:SCCF:16:1,2010-08-06T01:00:00Z,26.4345,-81.9647,2.635,32.98,1111122 
SCCF RECON,ioos:station:SCCF:16:1,2010-08-06T02:00:00Z,26.4345,-81.9647,2.659,33.06,1111122 
SCCF RECON,ioos:station:SCCF:16:1,2010-08-06T03:00:00Z,26.4345,-81.9647,2.714,33.2,1111122 
SCCF RECON,ioos:station:SCCF:16:1,2010-08-06T04:00:00Z,26.4345,-81.9647,2.706,33.27,1111122 
SCCF RECON,ioos:station:SCCF:16:1,2010-08-06T05:00:00Z,26.4345,-81.9647,2.653,33.3,1111122 
SCCF RECON,ioos:station:SCCF:16:1,2010-08-06T06:00:00Z,26.4345,-81.9647,2.623,32.77,1111122 
SCCF RECON,ioos:station:SCCF:16:1,2010-08-06T07:00:00Z,26.4345,-81.9647,2.591,33.18,1111122 
SCCF RECON,ioos:station:SCCF:16:1,2010-08-06T08:00:00Z,26.4345,-81.9647,2.571,32.66,1111122 
SCCF RECON,ioos:station:SCCF:16:1,2010-08-06T09:00:00Z,26.4345,-81.9647,2.639,32.73,1111122 
SCCF RECON,ioos:station:SCCF:16:1,2010-08-06T10:00:00Z,26.4345,-81.9647,2.712,33.02,1111122 
SCCF RECON,ioos:station:SCCF:16:1,2010-08-06T11:00:00Z,26.4345,-81.9647,2.822,33.22,1111122 
SCCF RECON,ioos:station:SCCF:16:1,2010-08-06T12:00:00Z,26.4345,-81.9647,2.889,33.41,1111122 
SCCF RECON,ioos:station:SCCF:16:1,2010-08-06T13:00:00Z,26.4345,-81.9647,2.929,33.62,1111122 
SCCF RECON,ioos:station:SCCF:16:1,2010-08-06T14:00:00Z,26.4345,-81.9647,2.938,33.68,1111122 
SCCF RECON,ioos:station:SCCF:16:1,2010-08-06T15:00:00Z,26.4345,-81.9647,2.893,33.68,1111122 
SCCF RECON,ioos:station:SCCF:16:1,2010-08-06T16:00:00Z,26.4345,-81.9647,2.703,33.61,1111122 
SCCF RECON,ioos:station:SCCF:16:1,2010-08-06T17:00:00Z,26.4345,-81.9647,2.549,33.54,1111122 
SCCF RECON,ioos:station:SCCF:16:1,2010-08-06T18:00:00Z,26.4345,-81.9647,2.392,33.26,1111122 
SCCF RECON,ioos:station:SCCF:16:1,2010-08-06T19:00:00Z,26.4345,-81.9647,2.189,32.95,1111122 
SCCF RECON,ioos:station:SCCF:16:1,2010-08-06T20:00:00Z,26.4345,-81.9647,2.038,32.36,1111122 
SCCF RECON,ioos:station:SCCF:16:1,2010-08-06T21:00:00Z,26.4345,-81.9647,2.014,32.01,1111122 
SCCF RECON,ioos:station:SCCF:16:1,2010-08-06T22:00:00Z,26.4345,-81.9647,2.1,31.3,1111122 
SCCF RECON,ioos:station:SCCF:16:1,2010-08-06T23:00:00Z,26.4345,-81.9647,2.23,31.97,1111122 
SCCF RECON,ioos:station:SCCF:16:1,2010-08-07T00:00:00Z,26.4345,-81.9647,2.38,32.83,1111122 
SCCF RECON,ioos:station:SCCF:16:1,2010-08-07T01:00:00Z,26.4345,-81.9647,2.52,32.94,1111122 
SCCF RECON,ioos:station:SCCF:16:1,2010-08-07T02:00:00Z,26.4345,-81.9647,2.641,33.14,1111122 
SCCF RECON,ioos:station:SCCF:16:1,2010-08-07T03:00:00Z,26.4345,-81.9647,2.711,33.53,1111122 
SCCF RECON,ioos:station:SCCF:16:1,2010-08-07T04:00:00Z,26.4345,-81.9647,2.731,33.59,1111122 
SCCF RECON,ioos:station:SCCF:16:1,2010-08-07T05:00:00Z,26.4345,-81.9647,2.698,33.66,1111122 
SCCF RECON,ioos:station:SCCF:16:1,2010-08-07T06:00:00Z,26.4345,-81.9647,2.635,33.66,1111122 
SCCF RECON,ioos:station:SCCF:16:1,2010-08-07T07:00:00Z,26.4345,-81.9647,2.605,33.68,1111122 
SCCF RECON,ioos:station:SCCF:16:1,2010-08-07T08:00:00Z,26.4345,-81.9647,2.56,33.71,1111122 
SCCF RECON,ioos:station:SCCF:16:1,2010-08-07T09:00:00Z,26.4345,-81.9647,2.576,33.74,1111122 
SCCF RECON,ioos:station:SCCF:16:1,2010-08-07T10:00:00Z,26.4345,-81.9647,2.66,33.71,1111122 
SCCF RECON,ioos:station:SCCF:16:1,2010-08-07T11:00:00Z,26.4345,-81.9647,2.77,33.76,1111122 
SCCF RECON,ioos:station:SCCF:16:1,2010-08-07T12:00:00Z,26.4345,-81.9647,2.872,33.85,1111122 
SCCF RECON,ioos:station:SCCF:16:1,2010-08-07T13:00:00Z,26.4345,-81.9647,2.93,33.71,1111122 
SCCF RECON,ioos:station:SCCF:16:1,2010-08-07T14:00:00Z,26.4345,-81.9647,3.01,33.59,1111122 
SCCF RECON,ioos:station:SCCF:16:1,2010-08-07T15:00:00Z,26.4345,-81.9647,3.01,33.3,1111122 
SCCF RECON,ioos:station:SCCF:16:1,2010-08-07T16:00:00Z,26.4345,-81.9647,2.95,33.06,1111122 
SCCF RECON,ioos:station:SCCF:16:1,2010-08-07T17:00:00Z,26.4345,-81.9647,2.76,33.25,1111122 
SCCF RECON,ioos:station:SCCF:16:1,2010-08-07T18:00:00Z,26.4345,-81.9647,2.548,33.39,1111122 
SCCF RECON,ioos:station:SCCF:16:1,2010-08-07T19:00:00Z,26.4345,-81.9647,2.321,33.41,1111122 
SCCF RECON,ioos:station:SCCF:16:1,2010-08-07T20:00:00Z,26.4345,-81.9647,2.107,32.95,1111122 
SCCF RECON,ioos:station:SCCF:16:1,2010-08-07T21:00:00Z,26.4345,-81.9647,1.953,32.68,1111122 
SCCF RECON,ioos:station:SCCF:16:1,2010-08-07T22:00:00Z,26.4345,-81.9647,1.92,31.03,1111122 
SCCF RECON,ioos:station:SCCF:16:1,2010-08-07T23:00:00Z,26.4345,-81.9647,2.078,31.33,1111122 
SCCF RECON,ioos:station:SCCF:16:1,2010-08-08T00:00:00Z,26.4345,-81.9647,2.282,31.69,1111122 
SCCF RECON,ioos:station:SCCF:16:1,2010-08-08T01:00:00Z,26.4345,-81.9647,2.44,32.58,1111122 
SCCF RECON,ioos:station:SCCF:16:1,2010-08-08T02:00:00Z,26.4345,-81.9647,2.56,33.34,1111122 
SCCF RECON,ioos:station:SCCF:16:1,2010-08-08T03:00:00Z,26.4345,-81.9647,2.71,33.45,1111122 
SCCF RECON,ioos:station:SCCF:16:1,2010-08-08T04:00:00Z,26.4345,-81.9647,2.8,33.55,1111122 
SCCF RECON,ioos:station:SCCF:16:1,2010-08-08T05:00:00Z,26.4345,-81.9647,2.77,33.56,1111122 
SCCF RECON,ioos:station:SCCF:16:1,2010-08-08T06:00:00Z,26.4345,-81.9647,2.67,33.59,1111122 
SCCF RECON,ioos:station:SCCF:16:1,2010-08-08T07:00:00Z,26.4345,-81.9647,2.61,33.59,1111122 
SCCF RECON,ioos:station:SCCF:16:1,2010-08-08T08:00:00Z,26.4345,-81.9647,2.54,33.59,1111122 
SCCF RECON,ioos:station:SCCF:16:1,2010-08-08T09:00:00Z,26.4345,-81.9647,2.49,33.57,1111122 
SCCF RECON,ioos:station:SCCF:16:1,2010-08-08T10:00:00Z,26.4345,-81.9647,2.53,32.99,1111122 
SCCF RECON,ioos:station:SCCF:16:1,2010-08-08T11:00:00Z,26.4345,-81.9647,2.64,33.59,1111122 
SCCF RECON,ioos:station:SCCF:16:1,2010-08-08T12:00:00Z,26.4345,-81.9647,2.788,33.79,1111122 
SCCF RECON,ioos:station:SCCF:16:1,2010-08-08T13:00:00Z,26.4345,-81.9647,2.9,33.83,1111122 
SCCF RECON,ioos:station:SCCF:16:1,2010-08-08T14:00:00Z,26.4345,-81.9647,2.992,33.94,1111122 
SCCF RECON,ioos:station:SCCF:16:1,2010-08-08T15:00:00Z,26.4345,-81.9647,3.054,33.85,1111122 
SCCF RECON,ioos:station:SCCF:16:1,2010-08-08T16:00:00Z,26.4345,-81.9647,3.04,33.99,1111122 
SCCF RECON,ioos:station:SCCF:16:1,2010-08-08T17:00:00Z,26.4345,-81.9647,2.92,33.99,1111122 
SCCF RECON,ioos:station:SCCF:16:1,2010-08-08T18:00:00Z,26.4345,-81.9647,2.7,33.92,1111122 
SCCF RECON,ioos:station:SCCF:16:1,2010-08-08T19:00:00Z,26.4345,-81.9647,2.5,33.9,1111122 
SCCF RECON,ioos:station:SCCF:16:1,2010-08-08T20:00:00Z,26.4345,-81.9647,2.244,33.48,1111122 
SCCF RECON,ioos:station:SCCF:16:1,2010-08-08T21:00:00Z,26.4345,-81.9647,1.99,32.88,1111122 
SCCF RECON,ioos:station:SCCF:16:1,2010-08-08T22:00:00Z,26.4345,-81.9647,1.878,30.85,1111122 
SCCF RECON,ioos:station:SCCF:16:1,2010-08-08T23:00:00Z,26.4345,-81.9647,1.893,30.11,1111122 
SCCF RECON,ioos:station:SCCF:16:1,2010-08-09T00:00:00Z,26.4345,-81.9647,2.029,30.61,1111122 
SCCF RECON,ioos:station:SCCF:16:1,2010-08-09T01:00:00Z,26.4345,-81.9647,2.23,30.17,1111122 
SCCF RECON,ioos:station:SCCF:16:1,2010-08-09T02:00:00Z,26.4345,-81.9647,2.427,31.4,1111122 
SCCF RECON,ioos:station:SCCF:16:1,2010-08-09T03:00:00Z,26.4345,-81.9647,2.673,31.45,1111122 
SCCF RECON,ioos:station:SCCF:16:1,2010-08-09T04:00:00Z,26.4345,-81.9647,2.769,32.77,1111122 
SCCF RECON,ioos:station:SCCF:16:1,2010-08-09T05:00:00Z,26.4345,-81.9647,2.81,33.23,1111122 
SCCF RECON,ioos:station:SCCF:16:1,2010-08-09T06:00:00Z,26.4345,-81.9647,2.735,33.51,1111122 
SCCF RECON,ioos:station:SCCF:16:1,2010-08-09T07:00:00Z,26.4345,-81.9647,2.62,33.59,1111122 
SCCF RECON,ioos:station:SCCF:16:1,2010-08-09T08:00:00Z,26.4345,-81.9647,2.532,33.51,1111122 
SCCF RECON,ioos:station:SCCF:16:1,2010-08-09T09:00:00Z,26.4345,-81.9647,2.521,33.42,1111122 
SCCF RECON,ioos:station:SCCF:16:1,2010-08-09T10:00:00Z,26.4345,-81.9647,2.42,32.05,1111122 
SCCF RECON,ioos:station:SCCF:16:1,2010-08-09T11:00:00Z,26.4345,-81.9647,2.47,31.09,1111122 
SCCF RECON,ioos:station:SCCF:16:1,2010-08-09T12:00:00Z,26.4345,-81.9647,2.647,30.83,1111122 
SCCF RECON,ioos:station:SCCF:16:1,2010-08-09T13:00:00Z,26.4345,-81.9647,2.791,31.05,1111122 
SCCF RECON,ioos:station:SCCF:16:1,2010-08-09T14:00:00Z,26.4345,-81.9647,2.891,32.12,1111122 
SCCF RECON,ioos:station:SCCF:16:1,2010-08-09T15:00:00Z,26.4345,-81.9647,3.016,32.83,1111122 
SCCF RECON,ioos:station:SCCF:16:1,2010-08-09T16:00:00Z,26.4345,-81.9647,3.116,33.08,1111122 
SCCF RECON,ioos:station:SCCF:16:1,2010-08-09T17:00:00Z,26.4345,-81.9647,3.08,33.53,1111122 
SCCF RECON,ioos:station:SCCF:16:1,2010-08-09T18:00:00Z,26.4345,-81.9647,3.0,33.54,1111122 
SCCF RECON,ioos:station:SCCF:16:1,2010-08-09T19:00:00Z,26.4345,-81.9647,2.77,33.35,1111122 
SCCF RECON,ioos:station:SCCF:16:1,2010-08-09T20:00:00Z,26.4345,-81.9647,2.519,33.17,1111122 
SCCF RECON,ioos:station:SCCF:16:1,2010-08-09T21:00:00Z,26.4345,-81.9647,2.261,32.81,1111122 
SCCF RECON,ioos:station:SCCF:16:1,2010-08-09T22:00:00Z,26.4345,-81.9647,2.05,32.5,1111122 
SCCF RECON,ioos:station:SCCF:16:1,2010-08-09T23:00:00Z,26.4345,-81.9647,1.91,31.89,1111122 
SCCF RECON,ioos:station:SCCF:16:1,2010-08-10T00:00:00Z,26.4345,-81.9647,1.961,30.43,1111122 
SCCF RECON,ioos:station:SCCF:16:1,2010-08-10T01:00:00Z,26.4345,-81.9647,2.139,30.63,1111122 
SCCF RECON,ioos:station:SCCF:16:1,2010-08-10T02:00:00Z,26.4345,-81.9647,2.428,31.35,1111122 
SCCF RECON,ioos:station:SCCF:16:1,2010-08-10T03:00:00Z,26.4345,-81.9647,2.619,31.3,1111122 
SCCF RECON,ioos:station:SCCF:16:1,2010-08-10T04:00:00Z,26.4345,-81.9647,2.699,32.15,1111122 
SCCF RECON,ioos:station:SCCF:16:1,2010-08-10T05:00:00Z,26.4345,-81.9647,2.809,32.34,1111122 
SCCF RECON,ioos:station:SCCF:16:1,2010-08-10T06:00:00Z,26.4345,-81.9647,2.809,32.36,1111122 
SCCF RECON,ioos:station:SCCF:16:1,2010-08-10T07:00:00Z,26.4345,-81.9647,2.706,32.56,1111122 
SCCF RECON,ioos:station:SCCF:16:1,2010-08-10T08:00:00Z,26.4345,-81.9647,2.58,32.28,1111122 
SCCF RECON,ioos:station:SCCF:16:1,2010-08-10T09:00:00Z,26.4345,-81.9647,2.453,32.19,1111122 
SCCF RECON,ioos:station:SCCF:16:1,2010-08-10T10:00:00Z,26.4345,-81.9647,2.384,31.87,1111122 
SCCF RECON,ioos:station:SCCF:16:1,2010-08-10T11:00:00Z,26.4345,-81.9647,2.302,31.77,1111122 
SCCF RECON,ioos:station:SCCF:16:1,2010-08-10T12:00:00Z,26.4345,-81.9647,2.414,31.4,1111122 
SCCF RECON,ioos:station:SCCF:16:1,2010-08-10T13:00:00Z,26.4345,-81.9647,2.599,31.38,1111122 
SCCF RECON,ioos:station:SCCF:16:1,2010-08-10T14:00:00Z,26.4345,-81.9647,2.883,31.99,1111122 
SCCF RECON,ioos:station:SCCF:16:1,2010-08-10T15:00:00Z,26.4345,-81.9647,2.97,32.62,1111122 
SCCF RECON,ioos:station:SCCF:16:1,2010-08-10T16:00:00Z,26.4345,-81.9647,3.085,33.36,1111122 
SCCF RECON,ioos:station:SCCF:16:1,2010-08-10T17:00:00Z,26.4345,-81.9647,3.216,33.51,1111122 
SCCF RECON,ioos:station:SCCF:16:1,2010-08-10T18:00:00Z,26.4345,-81.9647,3.214,33.41,1111122 
SCCF RECON,ioos:station:SCCF:16:1,2010-08-10T19:00:00Z,26.4345,-81.9647,3.072,33.39,1111122 
SCCF RECON,ioos:station:SCCF:16:1,2010-08-10T20:00:00Z,26.4345,-81.9647,2.805,33.3,1111122 
SCCF RECON,ioos:station:SCCF:16:1,2010-08-10T21:00:00Z,26.4345,-81.9647,2.591,33.12,1111122 
SCCF RECON,ioos:station:SCCF:16:1,2010-08-10T22:00:00Z,26.4345,-81.9647,2.378,33.05,1111122 
SCCF RECON,ioos:station:SCCF:16:1,2010-08-10T23:00:00Z,26.4345,-81.9647,2.196,32.61,1111122 
SCCF RECON,ioos:station:SCCF:16:1,2010-08-11T00:00:00Z,26.4345,-81.9647,2.086,32.04,1111122 
SCCF RECON,ioos:station:SCCF:16:1,2010-08-11T01:00:00Z,26.4345,-81.9647,2.195,31.42,1111122 
SCCF RECON,ioos:station:SCCF:16:1,2010-08-11T02:00:00Z,26.4345,-81.9647,2.459,31.17,1111122 
SCCF RECON,ioos:station:SCCF:16:1,2010-08-11T03:00:00Z,26.4345,-81.9647,2.74,31.48,1111122 
SCCF RECON,ioos:station:SCCF:16:1,2010-08-11T04:00:00Z,26.4345,-81.9647,2.888,31.72,1111122 
SCCF RECON,ioos:station:SCCF:16:1,2010-08-11T05:00:00Z,26.4345,-81.9647,3.026,32.01,1111122 
SCCF RECON,ioos:station:SCCF:16:1,2010-08-11T06:00:00Z,26.4345,-81.9647,3.033,32.29,1111122 
SCCF RECON,ioos:station:SCCF:16:1,2010-08-11T07:00:00Z,26.4345,-81.9647,2.981,32.62,1111122 
SCCF RECON,ioos:station:SCCF:16:1,2010-08-11T08:00:00Z,26.4345,-81.9647,2.884,32.77,1111122 
SCCF RECON,ioos:station:SCCF:16:1,2010-08-11T09:00:00Z,26.4345,-81.9647,2.791,32.69,1111122 
SCCF RECON,ioos:station:SCCF:16:1,2010-08-11T10:00:00Z,26.4345,-81.9647,2.547,32.54,1111122 
SCCF RECON,ioos:station:SCCF:16:1,2010-08-11T11:00:00Z,26.4345,-81.9647,2.462,31.96,1111122 
SCCF RECON,ioos:station:SCCF:16:1,2010-08-11T12:00:00Z,26.4345,-81.9647,2.453,31.66,1111122 
SCCF RECON,ioos:station:SCCF:16:1,2010-08-11T13:00:00Z,26.4345,-81.9647,2.563,31.8,1111122 
SCCF RECON,ioos:station:SCCF:16:1,2010-08-11T14:00:00Z,26.4345,-81.9647,2.79,32.58,1111122 
SCCF RECON,ioos:station:SCCF:16:1,2010-08-11T15:00:00Z,26.4345,-81.9647,2.972,32.63,1111122 
SCCF RECON,ioos:station:SCCF:16:1,2010-08-11T16:00:00Z,26.4345,-81.9647,3.047,32.28,1111122 
SCCF RECON,ioos:station:SCCF:16:1,2010-08-11T17:00:00Z,26.4345,-81.9647,3.128,32.3,1111122 